Location: Arbon
(43.0005°N, 0.7472°E)
Time: 07:40:46
(UTC+00:00)

Vanguard 1 - Pass Details

Date: 04 December 2020
Orbit: 648 x 3834 km, 34.3° (Epoch: 21 January)

Event Time Altitude Azimuth Distance (km) Brightness Sun altitude
Rises 10:19:21 0° 266° (W) 4,868 13.5 21.6°
Reaches altitude 10° 10:23:31 10° 249° (WSW) 4,373 13.5 21.9°
Maximum altitude 10:31:16 19° 210° (SSW) 4,505 14.2 22.4°
Drops below altitude 10° 10:41:47 10° 174° (S) 6,122 16.0 22.9°
Sets 10:49:43 0° 160° (SSE) 7,620 16.0 23.3°
